CCDAZ SCEL-SAME

Flight info

Callsign CCDAZ
Flight time 0h 30m
Altitude 27000
Route NEBE5D NEBEG NEBE2Q
Aircraft C25C/M-SDE2E3FGHRWXY/LB1

Departure

Time 2026-05-06 17:41
Airport Comodoro Arturo Merino Benítez International Airport (SCEL)

Arrival

Time 2026-05-06 18:12
Airport Governor Francisco Gabrielli International Airport (SAME)
Time Latitude Longitude Altitude Speed Heading
2026-05-06 17:35 -33.39223 -70.79204 1558 ft 0 kts 360°
2026-05-06 17:38 -33.39208 -70.79182 1558 ft 12 kts 81°
2026-05-06 17:38 -33.39303 -70.79139 1558 ft 14 kts 160°
2026-05-06 17:39 -33.39312 -70.79077 1558 ft 17 kts 85°
2026-05-06 17:39 -33.39308 -70.78895 1558 ft 25 kts 90°
2026-05-06 17:39 -33.39367 -70.78791 1558 ft 18 kts 179°
2026-05-06 17:39 -33.39509 -70.78786 1558 ft 23 kts 177°
2026-05-06 17:40 -33.39676 -70.78776 1558 ft 21 kts 177°
2026-05-06 17:40 -33.39701 -70.78705 1558 ft 13 kts 47°
2026-05-06 17:40 -33.39590 -70.78637 1557 ft 22 kts 27°
2026-05-06 17:40 -33.39503 -70.78565 1557 ft 1 kts 354°
2026-05-06 17:41 -33.39087 -70.78592 1558 ft 122 kts 358°
2026-05-06 17:41 -33.38048 -70.78623 2158 ft 163 kts 359°
2026-05-06 17:41 -33.36854 -70.78693 3138 ft 178 kts 354°
2026-05-06 17:41 -33.35585 -70.78772 4094 ft 196 kts 356°
2026-05-06 17:42 -33.34114 -70.78853 5107 ft 221 kts 354°
2026-05-06 17:42 -33.32557 -70.78527 6168 ft 246 kts 21°
2026-05-06 17:42 -33.31136 -70.77216 7144 ft 274 kts 47°
2026-05-06 17:42 -33.30433 -70.75009 8087 ft 304 kts 80°
2026-05-06 17:43 -33.30807 -70.72458 9243 ft 315 kts 116°
2026-05-06 17:43 -33.32243 -70.70491 10601 ft 321 kts 145°
2026-05-06 17:43 -33.34325 -70.69425 11173 ft 340 kts 172°
2026-05-06 17:43 -33.36755 -70.69086 11742 ft 357 kts 180°
2026-05-06 17:44 -33.39219 -70.68819 12839 ft 359 kts 178°
2026-05-06 17:44 -33.41699 -70.68289 13793 ft 368 kts 171°
2026-05-06 17:44 -33.44199 -70.67447 14628 ft 374 kts 168°
2026-05-06 17:44 -33.46654 -70.66384 15413 ft 383 kts 161°
2026-05-06 17:45 -33.49088 -70.64993 16200 ft 389 kts 158°
2026-05-06 17:45 -33.51526 -70.63502 16979 ft 395 kts 158°
2026-05-06 17:45 -33.54008 -70.62055 17759 ft 399 kts 160°
2026-05-06 17:45 -33.56541 -70.60620 18528 ft 404 kts 160°
2026-05-06 17:46 -33.59065 -70.59171 19227 ft 409 kts 160°
2026-05-06 17:46 -33.61649 -70.57661 19975 ft 413 kts 160°
2026-05-06 17:46 -33.64240 -70.56154 20725 ft 417 kts 160°
2026-05-06 17:46 -33.66882 -70.54624 21481 ft 422 kts 161°
2026-05-06 17:47 -33.69551 -70.53079 22249 ft 428 kts 161°
2026-05-06 17:47 -33.72234 -70.51521 22990 ft 433 kts 161°
2026-05-06 17:47 -33.74960 -70.49930 23737 ft 438 kts 161°
2026-05-06 17:47 -33.77580 -70.47907 24244 ft 459 kts 144°
2026-05-06 17:48 -33.79702 -70.44982 24629 ft 477 kts 126°
2026-05-06 17:48 -33.81110 -70.41323 25088 ft 487 kts 107°
2026-05-06 17:48 -33.81558 -70.37316 25500 ft 491 kts 89°
2026-05-06 17:48 -33.81497 -70.33152 25887 ft 496 kts 85°
2026-05-06 17:49 -33.81306 -70.29021 26161 ft 499 kts 84°
2026-05-06 17:49 -33.81106 -70.24815 26512 ft 504 kts 85°
2026-05-06 17:49 -33.80999 -70.20611 26816 ft 511 kts 86°
2026-05-06 17:49 -33.80910 -70.16321 26980 ft 518 kts 85°
2026-05-06 17:50 -33.80755 -70.11951 27022 ft 520 kts 84°
2026-05-06 17:50 -33.80588 -70.07661 27004 ft 516 kts 85°
2026-05-06 17:50 -33.80487 -70.04801 26999 ft 514 kts 85°
2026-05-06 17:50 -33.80317 -69.99075 26989 ft 511 kts 85°
2026-05-06 17:51 -33.80225 -69.96231 26976 ft 510 kts 85°
2026-05-06 17:51 -33.80070 -69.91958 26976 ft 510 kts 85°
2026-05-06 17:51 -33.80196 -69.87722 26932 ft 511 kts 96°
2026-05-06 17:51 -33.80639 -69.83463 26943 ft 507 kts 97°
2026-05-06 17:52 -33.81085 -69.79281 26921 ft 507 kts 96°
2026-05-06 17:52 -33.81509 -69.75071 26924 ft 507 kts 96°
2026-05-06 17:52 -33.81904 -69.70880 26898 ft 509 kts 96°
2026-05-06 17:52 -33.82322 -69.66609 26898 ft 509 kts 96°
2026-05-06 17:53 -33.82747 -69.62400 26862 ft 512 kts 96°
2026-05-06 17:53 -33.83174 -69.58118 26851 ft 512 kts 96°
2026-05-06 17:53 -33.83578 -69.53897 26862 ft 510 kts 96°
2026-05-06 17:53 -33.83988 -69.49673 26837 ft 503 kts 96°
2026-05-06 17:54 -33.84399 -69.45467 26809 ft 501 kts 96°
2026-05-06 17:54 -33.84797 -69.41331 26791 ft 502 kts 96°
2026-05-06 17:54 -33.85198 -69.37192 26793 ft 502 kts 96°
2026-05-06 17:54 -33.85601 -69.32994 26751 ft 502 kts 96°
2026-05-06 17:55 -33.86004 -69.28795 26134 ft 514 kts 96°
2026-05-06 17:55 -33.86414 -69.24460 25396 ft 525 kts 96°
2026-05-06 17:55 -33.86823 -69.20161 24722 ft 503 kts 96°
2026-05-06 17:55 -33.87216 -69.16039 24152 ft 487 kts 96°
2026-05-06 17:56 -33.87590 -69.12068 23562 ft 480 kts 96°
2026-05-06 17:56 -33.87963 -69.08073 22897 ft 474 kts 96°
2026-05-06 17:56 -33.88326 -69.04198 22296 ft 466 kts 96°
2026-05-06 17:56 -33.88681 -69.00330 21704 ft 459 kts 95°
2026-05-06 17:57 -33.88555 -68.96533 21098 ft 451 kts 77°
2026-05-06 17:57 -33.87585 -68.93021 20507 ft 439 kts 59°
2026-05-06 17:57 -33.85887 -68.90030 19933 ft 425 kts 43°
2026-05-06 17:57 -33.83670 -68.87774 19376 ft 410 kts 27°
2026-05-06 17:58 -33.81176 -68.86343 18844 ft 394 kts 12°
2026-05-06 17:58 -33.78530 -68.85701 18317 ft 379 kts 358°
2026-05-06 17:58 -33.75909 -68.85466 17806 ft 375 kts 358°
2026-05-06 17:58 -33.73344 -68.85232 17298 ft 370 kts 358°
2026-05-06 17:59 -33.70787 -68.85009 16814 ft 368 kts 359°
2026-05-06 17:59 -33.68185 -68.84781 16316 ft 375 kts 359°
2026-05-06 17:59 -33.65607 -68.84539 15823 ft 375 kts
2026-05-06 17:59 -33.62996 -68.84301 15328 ft 374 kts
2026-05-06 18:00 -33.60395 -68.84065 14824 ft 372 kts
2026-05-06 18:00 -33.57845 -68.83837 14348 ft 370 kts
2026-05-06 18:00 -33.55275 -68.83604 13850 ft 368 kts
2026-05-06 18:00 -33.52717 -68.83369 13360 ft 367 kts
2026-05-06 18:01 -33.50195 -68.83143 12850 ft 364 kts
2026-05-06 18:01 -33.47664 -68.82907 12364 ft 361 kts
2026-05-06 18:01 -33.45200 -68.82686 11897 ft 358 kts
2026-05-06 18:01 -33.42710 -68.82461 11414 ft 356 kts
2026-05-06 18:02 -33.40265 -68.82237 10955 ft 354 kts
2026-05-06 18:02 -33.37794 -68.82016 10481 ft 352 kts
2026-05-06 18:02 -33.35464 -68.81802 10036 ft 317 kts
2026-05-06 18:02 -33.33392 -68.81607 9666 ft 289 kts
2026-05-06 18:03 -33.31481 -68.81438 9560 ft 261 kts
2026-05-06 18:03 -33.29709 -68.81279 9258 ft 260 kts
2026-05-06 18:03 -33.27818 -68.81119 8912 ft 279 kts
2026-05-06 18:03 -33.25871 -68.80940 8544 ft 277 kts
2026-05-06 18:04 -33.23975 -68.80764 8183 ft 275 kts
2026-05-06 18:04 -33.22058 -68.80589 7814 ft 274 kts
2026-05-06 18:04 -33.20158 -68.80422 7450 ft 272 kts
2026-05-06 18:04 -33.18290 -68.80252 7095 ft 269 kts 360°
2026-05-06 18:05 -33.16425 -68.80080 6754 ft 268 kts
2026-05-06 18:05 -33.14578 -68.79921 6407 ft 269 kts
2026-05-06 18:05 -33.12700 -68.79751 6097 ft 268 kts 359°
2026-05-06 18:05 -33.10911 -68.79722 6061 ft 249 kts 355°
2026-05-06 18:06 -33.09181 -68.79689 6059 ft 249 kts 356°
2026-05-06 18:06 -33.07449 -68.79639 6049 ft 254 kts 356°
2026-05-06 18:06 -33.05659 -68.79585 5926 ft 259 kts 356°
2026-05-06 18:06 -33.03853 -68.79536 5747 ft 258 kts 356°
2026-05-06 18:07 -33.02063 -68.79520 5531 ft 259 kts 354°
2026-05-06 18:07 -33.00294 -68.79532 5347 ft 245 kts 354°
2026-05-06 18:07 -32.98640 -68.79518 5081 ft 228 kts 355°
2026-05-06 18:07 -32.97114 -68.79487 4810 ft 214 kts 355°
2026-05-06 18:08 -32.95666 -68.79457 4549 ft 203 kts 354°
2026-05-06 18:08 -32.94277 -68.79439 4290 ft 193 kts 354°
2026-05-06 18:08 -32.93026 -68.79415 4084 ft 168 kts 356°
2026-05-06 18:08 -32.91937 -68.79413 3905 ft 148 kts 354°
2026-05-06 18:09 -32.90969 -68.79391 3746 ft 127 kts 354°
2026-05-06 18:09 -32.90155 -68.79381 3596 ft 110 kts 355°
2026-05-06 18:09 -32.89407 -68.79368 3448 ft 104 kts 352°
2026-05-06 18:09 -32.88694 -68.79371 3295 ft 101 kts 353°
2026-05-06 18:10 -32.88000 -68.79361 3119 ft 99 kts 354°
2026-05-06 18:10 -32.87319 -68.79347 2977 ft 99 kts 353°
2026-05-06 18:10 -32.86632 -68.79338 2843 ft 97 kts 351°
2026-05-06 18:10 -32.85946 -68.79319 2696 ft 99 kts 351°
2026-05-06 18:11 -32.85265 -68.79319 2564 ft 101 kts 352°
2026-05-06 18:11 -32.84540 -68.79307 2405 ft 104 kts 352°
2026-05-06 18:11 -32.83862 -68.79297 2310 ft 85 kts 351°
2026-05-06 18:11 -32.83388 -68.79297 2302 ft 51 kts 359°
2026-05-06 18:12 -32.83175 -68.79300 2302 ft 16 kts 332°
2026-05-06 18:12 -32.83159 -68.79409 2302 ft 13 kts 239°
2026-05-06 18:12 -32.83239 -68.79507 2309 ft 20 kts 212°
2026-05-06 18:12 -32.83280 -68.79515 2303 ft 8 kts 185°
2026-05-06 18:13 -32.83403 -68.79518 2307 ft 23 kts 180°
2026-05-06 18:13 -32.83528 -68.79522 2305 ft 4 kts 180°
2026-05-06 18:13 -32.83558 -68.79524 2310 ft 5 kts 185°
2026-05-06 18:13 -32.83640 -68.79520 2306 ft 24 kts 180°
2026-05-06 18:14 -32.83761 -68.79559 2311 ft 16 kts 263°
2026-05-06 18:14 -32.83767 -68.79728 2307 ft 19 kts 253°
2026-05-06 18:14 -32.83829 -68.79762 2308 ft 0 kts 229°
2026-05-06 18:14 -32.83829 -68.79768 2308 ft 0 kts 270°